User: anonymous   Login
Location: Roanoke
(37.2710°N, 79.9420°W)
Time: 14:07:55
(UTC-04:00)
Language:

Cosmos 1441 Rocket - Orbit

View from above orbital plane
View from above orbital plane
View from above satellite
View from above satellite

Ground track
Ground track

The orbit data is extracted from the following two-line orbital elements,

1 13819U 83010B   16181.16397309  .00001070  00000-0  56044-4 0  9990
2 13819  81.1150 211.5546 0034478  75.6733 284.8318 15.14429608820285
Epoch (UTC): 29 June 2016 03:56:07
Eccentricity: 0.0034478
inclination: 81.1150°
perigee height: 499 km
apogee height: 546 km
right ascension of ascending node: 211.5546°
argument of perigee: 75.6733°
revolutions per day: 15.14429608
mean anomaly at epoch: 284.8318°
orbit number at epoch: 82028

The dashed part of the orbit path shows where the satellite is in the earth's shadow,  

DLR